NW Arkansas Airport, AR

11:39 PM CDT on March 22, 2017 (GMT -0500)
Northwest Arkansas Regional

Weather History for KXNA - September, 2012

Change the Weather History Date:

Saturday, September 1, 2012

  Actual Average (KVBT) Record (KVBT)
Temperature  
Mean Temperature 77 °F -  
Max Temperature 86 °F 86 °F 99 °F (1990)
Min Temperature 70 °F 62 °F 45 °F (1949)
Cooling Degree Days 12    
Growing Degree Days 27 (Base 50)    
Moisture  
Dew Point 68 °F    
Average Humidity 73    
Maximum Humidity 91    
Minimum Humidity 53    
Precipitation  
Precipitation 0.07 in - - ()
Sea Level Pressure  
Sea Level Pressure 29.91 in    
Wind  
Wind Speed 10 mph (West)    
Max Wind Speed 18 mph    
Max Gust Speed 30 mph    
Visibility 10 miles    
Events Rain    
Averages and records for this station are not official NWS values.
T = Trace of Precipitation, MM = Missing Value Source: NWS Daily Summary

Daily Weather History Graph

Daily Weather History Graph

Search for Another Location

Airport or City:

Trip Planner

Search our weather history database for the weather conditions in past years. The results will help you decide how hot, cold, wet, or windy it might be!

Date:

Astronomy

Sep. 01, 2012 Rise Set
Actual Time 6:49 AM CDT 7:44 PM CDT
Civil Twilight 6:22 AM CDT 8:10 PM CDT
Nautical Twilight 5:51 AM CDT 8:41 PM CDT
Astronomical Twilight 5:19 AM CDT 9:13 PM CDT
Moon 8:06 PM CDT (9/1) 7:53 AM CDT (9/1)
Length of Visible Light 13h 47m
Length of Day
12h 55m
Full, 99% of the Moon is Illuminated
Sep 1
Full
Sep 8
Last Quarter
Sep 15
New
Sep 22
First Quarter
Sep 29
Full

Hourly Weather History & Observations

Time (CDT) Temp. Heat Index Dew Point Humidity Pressure Visibility Wind Dir Wind Speed Gust Speed Precip Events Conditions
1:53 AM 72.0 °F - 66.9 °F 84% 29.87 in 10.0 mi SW 8.1 mph - N/A   Overcast
2:53 AM 72.0 °F - 66.0 °F 81% 29.87 in 10.0 mi SW 9.2 mph - N/A   Mostly Cloudy
3:53 AM 72.0 °F - 66.0 °F 81% 29.88 in 10.0 mi SW 9.2 mph - N/A   Overcast
4:53 AM 72.0 °F - 66.0 °F 81% 29.89 in 10.0 mi SW 8.1 mph - N/A   Overcast
5:53 AM 73.0 °F - 66.0 °F 79% 29.89 in 10.0 mi SW 10.4 mph - N/A   Overcast
6:53 AM 73.0 °F - 66.0 °F 79% 29.89 in 10.0 mi WSW 11.5 mph - N/A   Overcast
7:53 AM 70.0 °F - 66.9 °F 90% 29.95 in 3.0 mi West 16.1 mph 23.0 mph 0.03 in Rain Rain
8:53 AM 71.1 °F - 66.9 °F 87% 29.93 in 10.0 mi WSW 11.5 mph - 0.04 in   Overcast
10:53 AM 80.1 °F 82.9 °F 69.1 °F 69% 29.93 in 10.0 mi West 15.0 mph - N/A   Partly Cloudy
11:53 AM 82.0 °F 85.5 °F 69.1 °F 65% 29.92 in 10.0 mi West 17.3 mph 25.3 mph N/A   Mostly Cloudy
12:53 PM 84.0 °F 87.8 °F 69.1 °F 61% 29.92 in 10.0 mi WSW 18.4 mph 29.9 mph N/A   Mostly Cloudy
1:53 PM 84.9 °F 87.1 °F 66.0 °F 53% 29.92 in 10.0 mi West 17.3 mph 25.3 mph N/A   Scattered Clouds
2:53 PM 84.9 °F 87.1 °F 66.0 °F 53% 29.91 in 10.0 mi West 13.8 mph 21.9 mph N/A   Partly Cloudy
3:53 PM 84.9 °F 87.6 °F 66.9 °F 55% 29.90 in 10.0 mi WNW 11.5 mph - N/A   Clear
4:53 PM 84.0 °F 86.5 °F 66.9 °F 56% 29.88 in 10.0 mi NW 6.9 mph - N/A   Mostly Cloudy
6:53 PM 84.9 °F 88.2 °F 68.0 °F 57% 29.88 in 10.0 mi WNW 5.8 mph - N/A   Clear
7:53 PM 80.1 °F 83.2 °F 70.0 °F 71% 29.88 in 10.0 mi WNW 3.5 mph - N/A   Clear
8:53 PM 78.1 °F - 70.0 °F 76% 29.91 in 10.0 mi WNW 3.5 mph - N/A   Clear
9:53 PM 75.0 °F - 70.0 °F 84% 29.94 in 10.0 mi Calm Calm - N/A   Clear
10:53 PM 73.0 °F - 69.1 °F 87% 29.93 in 10.0 mi Calm Calm - N/A   Clear
11:53 PM 72.0 °F - 69.1 °F 91% 29.94 in 10.0 mi Calm Calm - N/A   Clear